Location: La Bastide
(44.8335°N, 2.1196°E)
Time: 11:22:01
(UTC+00:00)

Daily predictions for brighter satellites

Satellite Brightness Start Highest point End
(mag) Time Altitude Azimuth Time Altitude Azimuth Time Altitude Azimuth
SL-16 R/B 3.2 19:10:55 10° SSE 19:15:24 25° ESE 19:19:55 10° NE
Cosmos 1378 Rocket 4.3 19:12:09 10° N 19:16:10 34° ENE 19:20:07 10° SE
Okean O Rocket 3.6 19:16:59 10° E 19:19:07 14° ENE 19:21:17 10° NNE
CZ-4 R/B 1.6 19:20:18 10° SE 19:23:51 44° ENE 19:27:23 10° N
SPOT 5 2.6 19:22:59 10° SSE 19:27:29 80° ENE 19:31:52 10° N
NOSS 3-4 (A) 3.9 19:23:15 10° SW 19:28:26 58° NW 19:34:11 10° NNE
NOSS 3-4 (C) 3.9 19:23:46 10° SW 19:28:58 59° NW 19:34:45 10° NNE
Cosmos 1656 Rocket 4.0 19:26:47 10° NNW 19:32:06 50° ENE 19:37:23 10° SE
Cosmos 1025 Rocket 4.0 19:29:07 10° NNE 19:32:53 29° ENE 19:36:27 11° SE
Helios 1A Rocket 2.6 19:30:57 10° NNE 19:34:03 43° E 19:37:06 10° S
Cosmos 1733 Rocket 3.0 19:31:00 10° S 19:35:21 75° E 19:39:46 10° NNE
CZ-4B R/B 3.7 19:31:41 10° SSE 19:35:24 75° ENE 19:39:18 10° N
PAYLOAD B 4.5 19:30:15 10° SE 19:35:32 52° ENE 19:40:52 10° N
Terra 2.4 19:32:26 10° SE 19:36:47 39° ENE 19:41:09 10° N
Cosmos 2242 Rocket 3.5 19:32:40 10° N 19:37:08 75° E 19:41:31 10° SSE
SJ-6B 4.3 19:34:03 10° SSW 19:37:23 34° W 19:40:43 10° NNW
BREEZE-M DEB (TANK) 2.9 19:35:56 10° WNW 19:38:25 45° NNE 19:43:25 10° E
IRAS Rocket 4.2 19:34:28 10° SSE 19:39:58 85° ENE 19:45:28 10° NNW
Gblst 52 Del rocket 4.4 19:35:26 10° WSW 19:41:16 88° SSE 19:47:58 10° ENE
Resurs 01 Rocket 4.1 19:37:54 10° SSW 19:41:25 23° W 19:44:56 10° NW
Cosmos 1821 Rocket 4.0 19:35:40 10° S 19:41:55 75° E 19:48:17 10° NNE
Cosmos 2237 Rocket 2.9 19:37:26 10° SW 19:43:02 59° WNW 19:48:42 10° NNE
Cosmos 2218 Rocket 4.2 19:41:51 10° SSW 19:47:58 74° W 19:54:09 10° N
Cosmos 2150 Rocket 4.5 19:43:48 10° SSE 19:48:28 36° ESE 19:53:13 10° NE
CSL-04 Rocket 4.0 19:43:06 10° S 19:48:39 74° WSW 19:54:13 10° NNW
Meteor 2-15 Rocket 4.4 19:45:15 10° S 19:51:19 80° E 19:57:27 10° N
BREEZE-M DEB (TANK) 3.6 19:49:56 10° WNW 19:52:08 35° N 19:55:54 10° ENE
Cosmos 1346 Rocket 2.9 19:49:12 10° N 19:52:42 45° ENE 19:55:10 17° SE
SL-4 R/B 3.0 19:53:43 10° S 19:56:41 22° SE 19:57:35 20° ESE
Cosmos 1400 Rocket 2.9 19:53:20 10° SSW 19:56:55 67° WNW 20:00:32 10° N
BREEZE-M DEB (TANK) 4.0 19:53:25 10° SSW 19:57:09 40° ESE 20:08:05 10° ENE
Cosmos 1812 1.4 19:56:45 14° SSW 19:58:03 51° W 19:59:42 10° N
Cosmos 1602 3.8 19:57:50 10° NNE 19:59:37 22° ENE 19:59:37 22° ENE
Meteor 1-31 Rocket 3.2 19:56:36 10° S 20:00:02 54° W 20:03:31 10° NNW
Cosmos 1943 Rocket 4.3 19:57:25 10° NW 20:01:53 24° WSW 20:06:19 10° SSW
ASTEX 1 4.0 19:59:47 17° SE 20:03:05 39° ENE 20:07:40 10° N
Gbstr 26 Del rocket 4.2 19:59:07 10° SSW 20:03:40 28° SE 20:06:31 16° E
USA 59 Rocket 0.5 20:00:29 10° NW 20:03:58 52° SW 20:07:46 14° SSE
Feng Yun 1-1 Rocket 4.3 20:00:33 10° SSE 20:06:03 83° WSW 20:11:30 10° NNW
Cosmos 1869 4.0 20:06:01 25° ESE 20:06:50 27° E 20:09:55 10° NNE
Cosmos 2297 4.4 20:01:49 10° NNW 20:07:16 42° ENE 20:10:44 21° ESE
Cosmos 1315 Rocket 4.4 20:08:55 16° E 20:08:55 16° E 20:10:54 10° NE
ADEOS 3.5 20:06:32 14° SSE 20:11:04 78° ENE 20:16:18 10° NNW
Cosmos 2369 Rocket 2.6 20:06:16 10° NNW 20:11:42 49° ENE 20:14:59 23° ESE
USA 186 2.6 20:14:08 21° NE 20:14:08 21° NE 20:15:36 10° NNE
CBERS 1 LM4 rocket 4.4 20:10:01 12° SSE 20:14:20 82° WSW 20:19:10 10° NNW
SL-08 R/B 3.3 20:10:30 10° NNE 20:15:23 64° ESE 20:20:13 10° S
MOS 1 4.4 20:10:36 10° S 20:16:14 78° WSW 20:21:56 10° NNW
Lacrosse 5 rocket 3.6 20:16:00 10° N 20:16:45 11° N 20:17:30 10° NNE
Cosmos 2285 Rocket 4.0 20:13:05 10° S 20:19:22 66° ESE 20:25:38 10° NNE
Cosmos 2221 Rocket 3.6 20:15:49 10° N 20:20:12 64° E 20:22:40 25° SSE
YAOGAN 11 4.3 20:16:30 10° NNE 20:20:39 47° E 20:23:06 22° SSE
USA 234 3.2 20:14:11 10° NE 20:20:45 72° SE 20:27:17 10° SW
SKYMED 3 4.3 20:19:26 10° NNE 20:23:20 85° WNW 20:27:13 10° SSW
Cosmos 405 Rocket 3.5 20:22:22 10° NNE 20:24:26 23° ENE 20:24:26 23° ENE
Cosmos 1943 3.8 20:23:23 22° SSE 20:26:16 35° ESE 20:31:21 10° NE
Molniya-1 3.0 20:24:55 10° SW 20:27:27 89° NW 20:32:31 10° NE
CZ-4B R/B 3.8 20:27:35 24° ENE 20:27:39 24° ENE 20:30:27 10° NNE
CZ-4B R/B 3.4 20:23:42 13° S 20:28:42 73° WSW 20:34:23 10° NNW
SL-8 R/B 3.8 20:27:02 10° WSW 20:31:46 74° NNW 20:36:05 12° ENE
SL-08 R/B 4.4 20:27:36 10° N 20:33:50 76° E 20:38:00 23° SSE
OAO 2 Rocket 4.4 20:29:43 10° WSW 20:33:58 26° S 20:34:49 25° SSE
Cosmos 1975 Rocket 4.0 20:31:24 10° N 20:35:21 31° ENE 20:35:59 29° E
ERS-1 Rocket 3.8 20:33:53 11° S 20:38:33 48° W 20:43:24 10° NNW
Cosmos 2263 4.3 20:37:16 10° NNW 20:42:54 64° ENE 20:45:15 35° SE
CZ-2C R/B 4.3 20:44:39 16° NE 20:44:39 16° NE 20:45:46 10° NNE
Cosmos 2292 Rocket 4.1 20:41:23 10° NNW 20:45:19 45° W 20:47:06 23° SSW
Okean-O 2.5 20:44:32 37° SSE 20:46:17 88° WSW 20:50:41 10° NNW
Cosmos 2298 Rocket 4.2 20:43:02 10° SSW 20:48:19 74° WNW 20:53:39 10° NNE
Cosmos 1908 Rocket 4.0 20:45:40 11° SSW 20:49:41 59° W 20:53:58 10° N
Cosmos 44 4.4 20:44:57 10° SW 20:49:53 50° NW 20:55:04 10° NNE
Okean O Rocket 1.7 20:53:06 36° S 20:54:46 69° WSW 20:59:05 10° NNW
CZ-4B R/B 3.6 20:55:25 44° ESE 20:56:24 52° ENE 21:01:00 10° N
CZ-4 R/B 4.0 20:56:11 10° WSW 20:58:05 13° W 21:00:00 10° WNW
Ariane Rocket 3.3 20:57:13 41° ESE 20:58:16 48° ENE 21:03:07 10° N
SL-16 R/B 3.0 20:53:37 10° SW 20:59:08 53° WNW 21:04:41 10° NNE
Cosmos 1782 Rocket 3.4 20:58:38 47° S 20:59:51 87° E 21:04:11 10° N
Cosmos 1934 Rocket 4.1 20:54:46 11° SSW 21:00:47 77° W 21:06:59 10° N
Geosat 4.2 20:56:44 10° NNE 21:01:43 71° WNW 21:06:41 10° SW
Spot 2 Rocket 3.9 21:03:20 29° SSW 21:05:44 57° W 21:10:41 10° NNW
USA 245 3.8 21:05:18 51° SSE 21:06:33 83° ENE 21:12:04 10° NNW
Cosmos 1269 Rocket 4.0 21:03:58 10° NNW 21:09:15 69° ENE 21:10:20 54° SE
ATLAS 5 CENTAUR R/B 3.3 21:06:52 10° N 21:10:04 21° NE 21:11:03 20° ENE
Cosmos 1140 Rocket 3.3 21:06:38 10° NNW 21:11:48 79° ENE 21:12:46 59° SE
Terra 3.8 21:10:46 11° SSW 21:14:25 24° W 21:18:13 10° NW
NOSS 3-1 (C) 4.1 21:12:09 10° NW 21:19:23 76° SW 21:23:02 39° SSE
Cosmos 1862 3.8 21:20:15 10° N 21:22:56 47° N 21:22:56 47° N
Cosmos 1447 Rocket 4.4 21:20:05 10° N 21:26:21 72° E 21:27:42 55° SE
Cosmos 2058 3.2 21:24:20 10° N 21:27:31 56° N 21:27:31 56° N
Cosmos 407 Rocket 3.7 21:23:43 10° NNW 21:28:43 53° ENE 21:28:58 53° ENE
Cosmos 371 Rocket 3.8 21:28:44 10° N 21:33:16 46° ENE 21:33:16 46° ENE
SL-4 R/B 3.8 21:29:54 10° WSW 21:31:14 21° WSW 21:31:14 21° WSW
COSMOS 2455 2.8 21:34:24 10° NNW 21:40:26 70° NE 21:41:17 61° ESE
SJ 16-02 2.5 21:37:26 10° N 21:40:32 32° NE 21:40:32 32° NE
Cosmos 2251 Rocket 4.4 21:38:24 10° N 21:43:19 36° ENE 21:43:27 36° ENE
Cosmos 1315 Rocket 4.1 21:43:33 33° W 21:43:44 34° WNW 21:47:11 10° N
SPOT 3 Rocket 4.2 21:48:49 43° SW 21:49:42 47° W 21:54:42 10° NNW
Gbstr 26 Del rocket 3.8 21:44:52 10° WSW 21:48:40 49° W 21:48:40 49° W
Cosmos 1605 Rocket 4.4 21:47:33 31° SW 21:50:23 56° WNW 21:56:27 10° N
Lacrosse 5 rocket 3.4 21:51:27 10° NNW 21:52:47 19° NNW 21:52:47 19° NNW
Cosmos 2369 Rocket 3.6 21:50:49 10° NW 21:55:23 26° WSW 21:56:46 24° SW
SeaSat 1 3.9 21:56:42 26° NE 21:56:59 26° NE 22:01:01 10° N
Cosmos 2173 Rocket 3.9 22:03:22 66° E 22:03:22 66° E 22:09:17 10° NNE
USA 234 4.2 21:57:22 10° NE 22:03:34 47° NNW 22:09:45 10° W
Cosmos 1697 Rocket 4.4 22:00:05 10° N 22:04:20 21° NE 22:05:25 20° ENE
Helios 1B rocket 4.5 22:09:10 20° N 22:09:10 20° N 22:10:25 10° N
Cosmos 921 Rocket 4.2 22:03:19 10° NNW 22:06:41 37° WNW 22:06:41 37° WNW
Cosmos 1603 3.6 22:07:59 80° W 22:08:09 82° WNW 22:13:52 10° NNE
Cosmos 1943 4.4 22:04:58 10° SW 22:10:12 39° NW 22:15:31 10° NNE
SL-8 R/B 4.4 22:09:46 10° WNW 22:13:50 51° NNW 22:13:50 51° NNW
Meteor 2-3 Rocket 3.8 22:08:55 10° N 22:14:03 66° NE 22:14:03 66° NE
NOSS 3-1 (A) 4.1 22:11:54 10° NW 22:19:12 71° WSW 22:20:42 60° S
Okean 2 Rocket 4.4 22:24:29 37° N 22:24:29 37° N 22:27:12 10° N
Cosmos 1980 Rocket 4.4 22:21:17 10° N 22:24:41 16° NE 22:26:39 14° ENE
Cosmos 2100 Rocket 3.9 22:26:44 79° WSW 22:26:53 80° W 22:33:07 10° N
Cosmos 1190 Rocket 4.4 22:23:03 10° NNW 22:27:29 61° N 22:27:29 61° N
Tsikada Rocket 4.5 22:26:28 10° N 22:32:10 48° ENE 22:32:10 48° ENE
Cosmos 2360 4.4 22:37:10 10° NNW 22:42:06 67° NNW 22:42:06 67° NNW
Cosmos 1656 4.0 22:39:55 10° NNW 22:44:20 59° NW 22:44:20 59° NW
ATLAS 3B R/B 4.0 22:45:02 10° NNW 22:52:16 38° NE 22:55:41 26° E
ATLAS 5 CENTAUR R/B 3.3 22:48:05 10° NW 22:50:11 29° NW 22:50:11 29° NW
Cosmos 1833 Rocket 3.7 23:01:16 38° NE 23:01:16 38° NE 23:04:48 10° NNE
ALOS 2 4.3 23:03:31 30° N 23:03:31 30° N 23:05:53 10° N
Cosmos 1818 4.5 23:00:06 10° NW 23:03:52 43° WNW 23:03:52 43° WNW
ARIANE 5 R/B 4.3 23:10:04 30° NNW 23:10:04 30° NNW 23:12:21 10° NNW
Cosmos 1725 Rocket 4.2 23:08:52 63° WNW 23:08:52 63° WNW 23:14:57 10° N
DEBRIS 4.4 23:14:40 49° WNW 23:16:00 67° N 23:30:57 10° ENE
Cosmos 2233 Rocket 4.1 23:18:32 70° NNW 23:18:32 70° NNW 23:24:12 10° N
USA 229 DEB 4.3 23:11:27 10° NNW 23:18:52 61° NE 23:20:33 51° E
USA 229 4.3 23:11:31 10° NNW 23:18:55 60° NE 23:20:40 50° E
SJ 16-02 3.9 23:15:59 10° NW 23:17:02 15° WNW 23:17:02 15° WNW
Cosmos 2056 Rocket 4.4 23:20:45 47° NNW 23:20:45 47° NNW 23:25:09 10° NNE
ATLAS 2AS CENTAUR R/B 2.7 23:25:29 78° NNE 23:25:29 78° NNE 23:31:50 10° NE
CZ-2C R/B 3.7 23:29:07 39° NE 23:29:07 39° NE 23:33:25 10° N
SeaSat 1 4.0 23:36:18 29° NW 23:36:18 29° NW 23:38:52 10° NW
ACS3 Solar Sail 3.5 23:40:58 10° NE 23:44:46 20° E 23:44:46 20° E
Cosmos 1697 Rocket 3.5 23:43:15 10° NNW 23:47:06 45° NW 23:47:06 45° NW
Cosmos 1464 Rocket 4.4 23:54:07 53° NE 23:54:07 53° NE 23:59:08 10° NNE
